Location: Wildcat Hills Observatory
(41.6350°N, 103.6812°W)
Time: 12:08:09
(UTC-06:00)

Daily predictions for brighter satellites

Satellite Brightness Start Highest point End
(mag) Time Altitude Azimuth Time Altitude Azimuth Time Altitude Azimuth
Cosmos 1814 Rocket 4.2 19:04:12 10° SSW 19:09:22 80° WNW 19:14:32 10° NNE
Meteor 2-13 Rocket 4.4 19:06:49 10° S 19:12:49 65° E 19:18:49 10° NNE
SL-08 ROCKET BODY 4.4 19:07:10 10° S 19:12:57 63° E 19:18:52 10° NNE
Cosmos 1825 Rocket 4.3 19:10:21 10° NNW 19:14:43 60° W 19:19:06 10° S
SPOT 3 Rocket 3.8 19:13:38 10° S 19:18:46 75° WSW 19:23:58 10° NNW
Cosmos 1125 Rocket 4.1 19:15:11 10° N 19:20:08 38° ENE 19:25:03 10° SE
Cosmos 2184 Rocket 4.2 19:14:22 10° SSE 19:20:23 49° E 19:26:29 10° NNE
NOAA 12 4.1 19:17:49 10° SSE 19:23:04 84° ENE 19:28:21 10° NNW
Meteor 1-24 Rocket 4.0 19:17:46 10° N 19:23:36 53° ENE 19:29:12 10° SSE
Geosat 4.2 19:22:19 10° SE 19:27:13 55° ENE 19:32:08 10° NNW
Cosmos 1656 Rocket 3.8 19:21:40 10° NNW 19:27:20 84° WSW 19:32:52 10° SSE
Envisat 4.4 19:24:21 10° ESE 19:27:45 18° ENE 19:31:09 10° NNE
FENGYUN 3A 3.7 19:27:53 10° SSE 19:33:14 87° ENE 19:38:40 10° NNW
ATLAS 2AS CENTAUR R/B 4.1 19:28:16 10° NNW 19:35:03 28° NNE 19:40:36 13° E
Cosmos 1544 3.3 19:32:55 10° SSE 19:36:20 43° E 19:39:47 10° NNE
H-2A R/B 2.9 19:33:00 10° SSE 19:36:35 49° ENE 19:40:15 10° N
Cosmos 2327 Rocket 4.4 19:31:51 10° S 19:37:50 61° E 19:43:48 10° NNE
SJ-6B 3.1 19:34:54 10° SSE 19:38:43 46° ENE 19:42:28 10° N
Cosmos 841 Rocket 4.0 19:35:45 10° SSW 19:40:50 64° WNW 19:45:58 10° NNE
Cosmos 1953 3.5 19:40:57 10° SE 19:44:05 22° E 19:47:14 10° NE
COSMO-SKYMED 1 4.3 19:40:15 10° N 19:44:14 36° WNW 19:48:11 10° SW
NOSS 3-1 (A) 4.2 19:37:26 10° NW 19:45:08 85° WSW 19:53:37 10° SSE
BREEZE M DEB (TANK) 3.2 19:37:29 10° WNW 19:45:33 87° NNE 19:47:45 19° ESE
SL-27 R/B 3.0 19:45:40 10° S 19:49:00 37° ESE 19:52:23 10° NE
Cosmos 540 Rocket 3.3 19:44:34 10° SSW 19:49:39 77° ESE 19:54:46 10° NNE
Cosmos 292 Rocket 4.3 19:49:08 10° SSE 19:53:34 37° ESE 19:58:02 10° NE
HJ-1C 3.2 19:53:59 10° SSE 19:57:19 72° ENE 20:00:40 10° N
SJ 16-02 1.5 19:54:48 10° N 19:59:06 52° ENE 20:01:59 19° SE
Cosmos 1674 3.4 19:56:52 10° NNE 20:00:12 30° ENE 20:00:39 29° E
Cosmos 1356 Rocket 4.4 19:56:55 10° NNW 20:01:07 52° W 20:05:17 10° S
In-Cosmos 22 4.3 19:58:03 10° N 20:03:48 87° W 20:09:34 10° S
Cosmos 1766 3.6 20:00:05 10° SSW 20:03:58 66° W 20:07:52 10° N
COSMOS 2406 3.6 19:58:36 10° SSW 20:04:16 70° WNW 20:10:02 10° NNE
ISS -3.9 20:08:55 10° SW 20:12:11 85° NW 20:13:15 40° NE
Resurs 1-3 3.8 20:10:38 28° SE 20:12:39 49° ENE 20:16:54 10° N
Cosmos 2369 4.2 20:08:55 10° N 20:14:12 39° ENE 20:16:06 30° E
Milstar 3 Cent rocket 3.6 20:14:42 10° SW 20:18:06 17° S 20:19:07 16° SSE
ALOS 4.2 20:14:06 10° SSW 20:18:11 30° W 20:22:18 10° NW
Centaur D AC-29 3.5 20:14:17 10° SW 20:21:45 19° SSW 20:24:06 15° SSE
Cosmos 2154 Rocket 3.9 20:19:42 10° S 20:25:55 86° E 20:32:14 10° N
Cosmos 1758 3.2 20:25:38 10° S 20:29:38 87° W 20:33:39 10° N
Meteor 1-21 Rocket 4.1 20:25:21 10° N 20:31:05 70° E 20:34:10 27° SSE
BREEZE-M DEB (TANK) 3.5 20:29:18 10° NW 20:30:07 18° NNW 20:30:07 18° NNW
MOS 1-B Rocket 3.8 20:27:39 19° SSE 20:32:05 74° ENE 20:37:42 10° N
Cosmos 1812 Rocket 4.2 20:28:30 10° SSW 20:32:53 58° W 20:37:19 10° N
Spot 2 Rocket 3.3 20:31:12 31° SSE 20:33:40 76° ENE 20:38:43 10° N
Cosmos 1805 4.2 20:30:22 10° SSW 20:34:08 49° W 20:37:56 10° N
FALCON 9 R/B 2.7 20:32:05 10° WSW 20:35:14 36° S 20:36:10 33° SSE
Cosmos 2082 Rocket 4.3 20:35:18 10° S 20:45:39 11° NE 20:45:51 10° NE
Cosmos 2341 Rocket 3.8 20:35:04 10° S 20:41:16 81° E 20:47:31 10° N
CZ-2D R/B 3.9 20:39:25 26° SSW 20:41:19 52° W 20:45:04 10° NNW
Resurs 01 Rocket 1.7 20:39:30 32° S 20:41:30 75° WSW 20:45:56 10° NNW
GP-B 3.4 20:37:12 10° N 20:41:37 67° W 20:46:01 10° SSW
Meteor 2-21 4.4 20:38:15 21° SSE 20:42:19 57° E 20:48:18 10° NNE
ATLAS 5 CENTAUR R/B 3.7 20:38:38 10° S 20:39:22 14° S 20:39:22 14° S
KORONAS-FOTON 4.3 20:41:15 10° N 20:44:08 49° N 20:44:08 49° N
Cosmos 1939 Rocket 3.6 20:48:28 40° NNE 20:48:28 40° NNE 20:51:11 10° N
Cosmos 2278 3.6 20:42:26 10° NNW 20:48:07 69° ENE 20:49:05 57° ESE
Cosmos 1470 4.3 20:57:00 28° N 20:57:00 28° N 20:59:00 10° N
Nadezhda 3 Rocket 4.5 20:49:05 10° NNW 20:55:15 59° W 21:01:19 10° S
Meteor 2-15 Rocket 4.4 20:50:03 10° N 20:56:03 58° E 20:56:20 58° E
Cosmos 1656 3.6 20:51:38 10° NNW 20:57:18 67° ENE 20:57:35 66° E
Cosmos 2322 Rocket 4.4 20:55:29 10° NNE 20:56:45 12° NE 20:56:45 12° NE
Cosmos 2366 rocket 4.2 20:59:05 49° ENE 20:59:05 49° ENE 21:04:22 10° NNE
Cosmos 2218 Rocket 3.9 21:04:51 65° E 21:04:51 65° E 21:10:57 10° NNE
Cosmos 1697 Rocket 3.0 20:59:38 10° NNW 21:04:42 52° NE 21:04:42 52° NE
Envisat 3.5 21:04:28 36° SSW 21:06:18 57° W 21:11:19 10° NNW
Okean 3 Rocket 4.0 21:02:04 10° NNW 21:06:27 57° W 21:06:41 56° WSW
Cosmos 1980 Rocket 3.2 21:02:26 10° N 21:06:24 32° NNE 21:06:24 32° NNE
Cosmos 2285 Rocket 4.0 21:02:04 10° SSW 21:08:30 84° WNW 21:15:00 10° NNE
Cosmos 1809 Rocket 4.4 21:02:31 10° S 21:08:40 85° W 21:14:48 10° N
Cosmos 1953 4.4 21:16:56 10° SW 21:20:21 26° WNW 21:23:50 10° NNW
Meteor 2-15 4.5 21:16:48 10° NNW 21:22:51 73° W 21:23:43 63° SSW
SL-8 Rocket 4.0 21:23:07 44° SSW 21:25:09 74° W 21:31:20 10° N
ATLAS 2AS CENTAUR R/B 2.8 21:19:06 10° NW 21:27:09 90° WSW 21:28:03 73° SSE
Meteor 2-14 Rocket 4.4 21:27:33 81° WSW 21:27:42 82° W 21:33:52 10° N
Cosmos 1727 Rocket 4.2 21:24:10 10° N 21:29:23 60° NNE 21:29:23 60° NNE
H-2A R/B 4.1 21:37:47 17° NNE 21:37:47 17° NNE 21:39:09 10° N
SJ 16-02 4.1 21:35:00 10° WNW 21:37:12 14° W 21:39:03 11° WSW
SL-16 R/B 4.2 21:32:49 10° N 21:34:58 18° NNE 21:34:58 18° NNE
Cosmos 2082 Rocket 4.3 22:27:22 21° NNW 22:27:22 21° NNW 22:29:44 10° N
Cosmos 2322 Rocket 4.5 22:37:08 10° NNW 22:38:34 18° NNW 22:38:34 18° NNW
